星链-31584 (STARLINK-31584 )

导读 | 星芒AI

STARLINK-31584 是 SpaceX Starlink 卫星互联网项目中的一颗低轨卫星,属于 Starlink 群体部署的一部分,旨在为全球用户提供高速互联网服务。该卫星于近期由猎鹰9号火箭发射入轨,运行在约 550 公里的高度,设计寿命为 5 至 7 年。Starlink 项目通过部署大量卫星,构建全球覆盖的宽带网络,尤其服务于偏远和网络基础设施薄弱的地区。STARLINK-31584 的成功运行有助于提升 Starlink 网络的稳定性和覆盖范围。

基本信息
目录编号:
59862
目录名称:
STARLINK-31584
国际标识:
2024-098E
轨道中心:
EARTH
卫星名称:
星链-31584
卫星全名:
星链-31584 (STARLINK-31584 )
卫星状态:
在轨 (已飞行575 天)
发射日期:
2024-05-24 UTC
国别 :
美国 (US)
星等 :
--
轨道信息
数据来源 国际轨道数据
星历时间: 2025-12-19T16:49:16+0800
17小时前
查看轨道信息
半长轴: 6861.185km
偏心率: 0.0002246
轨道倾角: 43.011°
近地点辐角 282.667°
升交点赤经 11.473°
平近点角 77.393°
近地点: 481.506km
远地点: 484.59km
周期: 94.267分钟
每日圈数: 15.275804
详细信息
固有亮度:
5
最大亮度:
1.5
卫星平台:
Starlink v2.0 mini
覆盖范围:
全球
运营商:
太空探索技术公司
运营商所在国:
美国
制造商(研发单位):
太空探索技术公司
制造商所在国:
美国
使用方式:
暂无
卫星简介
星链(Starlink)计划是由太空探索技术公司(SpaceX)提出的一个巨型低轨卫星互联网星座项目,计划在2019年至2024年间在太空搭建由约1.2万颗卫星组成的“星链”网络,其中1584颗将部署在地球上空550千米处的近地轨道,并从2020年开始工作。该卫星仍在工作。
2D轨道图
3D轨道图
轨道高度分析图
轨道倾角分析图
轨道综合分析图
查看轨道综合分析图